User: anonymous   Login
Location: Albany
(35.0000°S, 118.0000°E)
Time: 13:02:51
(UTC-04:00)
Language:

SJ-6B - Orbit

View from above orbital plane
View from above orbital plane
View from above satellite
View from above satellite

Ground track
Ground track

The orbit data is extracted from the following two-line orbital elements,

1 28415U 04035C   17083.71391898 +.00000245 +00000-0 +20784-4 0  9993
2 28415 097.7547 112.4030 0053634 049.1586 311.4272 15.06098182685869
Epoch (UTC): 24 March 2017 17:08:02
Eccentricity: 0.0053634
inclination: 97.7547°
perigee height: 511 km
apogee height: 585 km
right ascension of ascending node: 112.4030°
argument of perigee: 49.1586°
revolutions per day: 15.06098182
mean anomaly at epoch: 311.4272°
orbit number at epoch: 68586

The dashed part of the orbit path shows where the satellite is in the earth's shadow,  

DLR